Wind_Speed
68 68 68 68 68 67 66 64 62 61 59 59 58 58 58 59 59 59 60 61 61 62 62 63 63 64 64 65 65 65 65 64 64 64 64 64 64 64 65 65 65 66 66 67 68 68 69 69 68 68 67 66 65 64 63 62 61 60 58 57 56 54 52 50 47 48 54 56 54 55 55 52 49 46 44 46 47 43 42 47 50 49 48 48 47
68 68 68 67 66 64 62 60 59 58 58 58 58 58 59 59 60 60 61 62 62 63 64 64 65 65 66 66 66 66 66 65 65 65 65 65 65 65 65 65 66 67 68 69 70 70 70 71 70 69 68 67 66 64 63 62 61 61 60 58 57 55 53 51 48 47 51 55 54 55 56 55 52 49 45 45 47 43 41 44 47 47 47 48 49
68 67 66 65 63 61 59 58 58 58 58 58 59 59 60 60 61 62 63 63 64 65 65 66 66 67 67 67 67 67 67 66 66 66 66 66 66 66 67 68 68 69 70 71 72 72 73 72 72 71 69 67 65 63 62 62 61 61 61 60 58 56 54 51 50 48 49 53 55 54 56 56 54 52 48 46 46 45 44 45 44 44 44 46 48
65 64 63 61 59 58 57 58 58 58 58 59 59 60 60 61 62 63 64 64 65 66 66 67 67 67 67 67 67 67 67 67 67 67 67 68 68 69 69 70 71 72 72 73 74 74 74 73 72 70 68 66 65 63 62 61 61 61 61 61 59 58 56 53 51 50 49 52 54 55 55 55 54 53 51 49 48 48 48 45 42 41 41 41 44
62 61 59 57 56 56 57 57 57 58 58 59 59 60 61 62 63 64 65 66 66 67 67 68 68 68 68 68 68 68 67 67 68 68 69 69 70 71 72 72 72 73 73 73 73 73 72 71 70 68 67 65 65 64 63 62 62 62 62 61 60 59 57 55 53 51 50 51 53 55 55 55 54 53 53 51 50 51 51 47 40 37 36 36 42
59 57 56 56 56 56 57 57 57 58 59 60 61 61 62 63 64 65 66 67 68 68 68 69 69 69 69 68 68 68 68 68 69 69 70 71 71 72 72 73 73 72 72 72 72 71 70 70 69 68 67 66 65 65 65 65 64 63 62 62 61 60 59 57 55 54 52 51 53 55 56 55 55 54 54 53 53 52 52 50 43 36 35 38 44
57 56 56 56 56 57 57 58 58 59 60 61 62 63 63 65 66 67 68 68 69 69 69 69 70 69 69 69 69 69 69 69 70 70 71 71 72 72 72 72 72 72 72 73 73 74 73 72 71 70 69 68 67 67 66 66 66 65 64 62 61 60 60 58 57 56 55 53 53 55 56 56 56 55 55 54 55 54 52 49 45 39 36 40 46
55 56 56 57 57 58 59 59 60 60 61 62 63 64 65 67 68 69 69 70 70 70 70 70 70 70 69 69 68 69 69 70 71 71 71 71 71 71 71 71 72 73 75 75 76 75 75 74 73 72 70 69 69 68 67 67 66 66 65 64 62 60 59 58 57 57 56 55 55 55 56 57 57 57 56 55 55 55 52 49 46 44 41 42 49
56 56 57 58 59 59 60 60 61 62 63 64 65 66 67 69 70 71 71 71 71 71 71 70 70 69 68 68 68 69 69 70 70 70 70 70 71 71 72 73 74 76 76 76 76 75 74 73 72 71 71 70 69 69 68 67 66 66 65 65 64 62 60 58 57 56 57 57 57 56 56 58 59 59 58 56 55 56 54 50 49 49 47 47 51
57 58 59 60 60 60 61 62 63 64 65 66 66 68 70 71 72 72 72 72 71 71 70 69 68 68 68 68 68 69 69 69 69 69 70 71 73 73 74 75 75 76 75 75 75 74 74 73 73 72 72 71 71 71 70 69 68 67 66 65 65 63 62 60 58 56 56 57 58 58 57 58 60 60 59 58 57 57 56 54 54 56 53 51 53
59 60 61 61 61 62 63 64 65 66 66 67 68 70 72 73 73 73 73 72 71 70 69 68 67 67 67 68 68 69 69 69 70 71 72 73 74 75 75 75 75 75 74 74 74 75 75 75 75 75 74 74 74 73 73 72 71 69 68 67 66 65 63 62 60 58 56 56 58 59 58 59 61 62 61 60 59 59 59 57 58 61 59 54 54
61 62 62 62 63 64 65 66 67 67 67 68 70 72 73 74 73 73 72 70 69 68 67 66 66 67 68 68 69 69 70 71 71 72 73 73 74 74 74 74 74 75 75 75 76 77 77 78 79 79 78 77 76 75 75 74 73 71 70 68 67 67 65 63 62 60 58 57 58 60 60 60 62 63 63 63 62 61 61 60 60 64 64 60 58
62 63 63 64 65 66 67 67 67 67 68 70 72 73 74 74 72 71 69 68 67 66 66 66 66 67 68 69 69 70 71 71 72 72 72 73 73 74 74 75 75 76 77 77 78 79 80 80 80 79 79 78 76 75 74 73 73 72 71 69 68 67 66 64 64 63 61 59 58 61 62 62 63 65 66 65 64 63 64 63 64 65 66 66 65
63 64 66 67 67 68 68 67 67 68 70 72 73 74 73 72 70 68 66 65 65 65 65 66 66 67 68 69 70 70 71 71 72 73 73 74 75 75 76 77 77 78 79 79 79 79 79 79 78 78 77 76 74 73 71 70 70 70 70 69 68 67 66 64 64 64 63 62 60 61 64 64 64 67 69 67 66 66 67 66 66 67 69 70 70
66 67 67 68 68 68 67 68 69 70 72 73 73 73 71 69 67 66 64 64 64 64 65 66 67 68 69 69 70 71 72 72 73 75 75 76 77 77 78 79 79 80 80 79 79 78 78 77 76 75 74 72 70 68 67 65 65 65 66 67 66 66 65 63 62 63 64 65 63 63 65 66 65 68 71 70 68 69 70 69 69 71 72 71 71
68 68 68 68 67 67 68 69 70 72 73 73 72 71 69 67 65 64 63 64 64 65 66 67 68 69 69 70 71 72 73 74 75 75 76 77 78 79 79 80 81 81 80 80 79 78 77 75 74 72 71 69 67 64 62 60 59 59 61 62 63 64 63 61 60 61 63 65 66 65 66 67 67 69 72 72 70 71 71 71 73 75 73 70 68
67 67 67 67 67 68 69 70 72 73 73 72 70 68 66 65 64 64 64 65 66 67 67 68 69 70 71 72 72 73 74 74 75 76 77 78 79 80 80 80 81 81 81 80 79 77 76 73 71 69 68 66 64 62 59 57 56 56 56 58 60 60 60 58 57 58 61 64 67 68 68 69 68 70 73 73 72 73 72 73 76 76 72 70 69
66 66 66 67 68 69 70 71 72 73 72 70 67 66 64 64 64 65 65 66 67 67 67 68 70 71 72 72 73 73 74 75 75 76 77 78 79 80 80 80 81 81 80 79 77 75 73 71 69 68 66 64 62 60 56 54 53 53 53 55 56 57 56 55 54 55 58 62 66 69 69 70 70 70 73 74 74 74 73 75 77 75 72 73 74
65 66 67 68 69 70 71 72 72 71 69 67 65 64 64 64 65 66 66 67 67 68 69 70 71 72 72 73 73 74 74 75 76 77 78 79 79 79 80 80 79 79 77 76 74 72 71 69 68 67 65 63 61 58 54 50 49 50 50 50 52 53 53 52 52 52 54 58 64 68 70 71 71 71 73 75 75 74 74 76 78 75 74 76 77
66 67 67 68 69 70 71 71 70 69 67 65 64 64 64 65 66 67 67 68 68 69 70 71 72 72 73 73 73 74 74 75 76 77 78 79 79 79 78 77 75 74 73 71 70 70 69 68 66 65 63 62 60 57 52 48 47 48 47 45 46 49 49 48 49 50 51 54 60 67 70 71 72 72 73 74 76 75 75 77 78 76 75 76 76
66 67 67 68 69 70 70 69 68 66 65 64 64 64 65 66 67 68 68 69 70 70 70 71 71 72 72 73 73 74 75 76 76 77 78 78 77 75 74 72 70 69 69 69 68 67 66 65 63 62 61 59 57 54 49 45 44 46 44 41 42 44 45 45 46 48 48 50 56 64 69 71 72 72 72 74 76 76 77 78 78 77 76 75 76
66 66 67 68 69 69 68 67 66 65 64 63 64 65 66 67 68 68 69 69 69 70 70 70 71 71 72 73 74 74 75 76 76 77 76 75 73 70 68 66 65 65 66 66 66 65 63 62 60 58 57 55 54 50 45 41 41 42 40 38 38 40 40 40 43 46 47 47 52 60 67 71 72 73 73 73 75 77 78 78 79 78 76 75 76
65 66 67 68 68 67 66 65 64 64 63 64 65 66 67 67 68 68 68 68 68 69 69 70 71 72 72 73 73 74 74 75 75 74 72 70 67 64 63 63 63 63 63 64 63 62 60 58 57 56 54 53 51 48 42 37 37 39 37 34 34 37 37 36 40 44 45 45 49 57 65 70 72 73 73 73 75 77 78 78 79 78 76 75 76
65 66 67 67 66 66 65 64 63 64 64 65 66 67 67 67 67 67 67 67 67 68 69 70 71 72 72 72 73 73 73 72 71 69 66 64 62 60 60 61 61 61 61 61 61 59 58 56 56 54 52 50 49 46 40 35 33 36 35 31 30 33 34 34 38 42 43 43 46 53 62 68 72 72 73 73 75 77 78 79 79 78 76 76 77
65 66 66 65 65 64 64 63 64 65 66 67 67 67 67 67 66 66 66 66 67 68 69 70 71 71 72 72 72 71 70 68 65 63 60 59 58 58 59 59 59 59 59 60 60 59 58 57 55 53 51 48 46 44 40 34 30 30 31 28 27 29 31 32 35 39 41 41 44 50 58 66 70 72 72 73 74 76 79 79 79 78 77 77 77
65 65 65 64 64 63 63 64 65 66 67 67 67 67 66 65 65 65 65 66 67 68 69 70 71 71 71 71 69 68 65 62 59 57 56 56 56 56 57 58 59 59 60 61 61 61 60 58 56 54 50 45 43 42 39 36 31 28 27 25 25 26 28 30 34 37 39 40 42 48 56 64 69 71 72 73 74 76 78 80 79 78 78 78 77
64 64 64 63 63 63 64 64 65 66 67 67 66 65 65 64 64 64 65 66 67 68 69 70 70 70 69 67 65 62 60 57 55 54 54 54 55 55 56 57 58 60 61 62 62 61 59 58 55 52 48 43 40 38 37 34 31 28 25 23 22 24 26 28 32 35 37 38 40 45 53 61 67 70 71 73 74 76 78 80 79 78 78 78 77
64 63 63 62 63 63 64 65 65 66 65 65 64 64 63 63 64 65 66 67 67 69 69 70 69 67 65 62 59 57 55 53 52 52 52 53 53 54 55 56 58 59 60 61 61 60 57 55 53 50 47 44 40 36 34 32 29 26 24 22 21 22 24 27 30 33 35 36 38 43 51 58 65 69 71 73 75 76 78 80 79 79 79 79 78
63 62 62 62 63 64 64 65 65 64 64 63 63 63 63 63 64 65 67 68 69 69 69 67 65 63 60 57 55 53 51 50 49 49 49 50 51 51 53 55 56 57 58 59 59 57 55 52 51 49 46 44 40 36 33 30 28 25 22 21 20 21 23 25 28 31 33 34 37 42 50 57 63 68 71 73 75 77 78 79 80 80 80 80 79
62 62 62 63 63 64 64 64 63 63 62 62 62 62 63 64 65 67 68 69 69 68 65 63 61 58 56 53 52 50 49 48 47 47 47 47 48 49 50 53 54 55 57 57 57 56 54 51 49 47 44 41 39 36 32 29 27 24 22 20 19 20 21 24 27 29 30 32 36 41 47 54 60 66 69 73 76 78 79 80 81 81 81 81 80
61 61 62 63 63 64 63 63 62 62 61 61 62 63 64 66 67 68 69 68 66 63 61 58 56 54 52 51 49 48 47 46 45 45 45 45 46 47 49 51 53 54 55 56 55 54 52 49 46 44 42 39 37 35 33 29 26 23 21 19 18 19 20 23 25 27 28 30 33 37 43 50 58 64 69 72 76 78 79 80 81 82 82 82 82
61 62 62 63 63 62 62 61 61 61 61 62 63 64 66 67 68 68 67 64 61 59 56 54 52 50 49 48 47 45 45 44 43 43 43 43 44 46 47 49 51 53 53 54 54 52 50 46 44 43 41 38 35 34 32 29 26 23 20 18 17 17 19 21 23 25 27 28 31 36 43 50 57 63 68 71 75 77 79 80 81 82 83 84 84
61 62 62 62 61 61 61 61 61 62 62 63 65 66 67 68 67 65 63 60 57 55 52 51 49 48 47 46 45 43 42 42 41 41 41 41 43 44 45 47 49 51 52 52 52 51 49 46 43 41 40 38 35 32 30 29 26 22 19 17 16 16 17 19 21 23 25 27 31 37 43 49 55 60 65 69 74 78 80 81 82 83 84 85 85
61 61 61 60 60 60 60 61 62 63 64 65 66 67 67 65 63 60 58 56 53 51 49 48 48 47 45 44 43 42 41 40 40 39 39 40 41 42 43 45 47 48 50 51 51 50 48 46 43 41 39 38 35 33 30 28 25 22 19 16 15 15 16 18 20 22 24 27 31 36 41 47 53 58 63 68 73 78 80 81 82 83 84 85 85
60 59 59 59 59 60 61 62 63 64 65 66 67 66 64 61 58 56 54 52 50 49 48 47 46 45 43 42 41 40 40 39 38 38 39 40 41 41 42 44 45 47 48 49 50 50 48 46 43 40 38 37 35 33 30 27 25 22 19 16 14 14 14 16 18 21 23 27 30 35 40 45 51 56 61 67 72 76 79 81 82 83 84 85 85
58 58 58 59 60 61 62 63 64 65 66 65 64 62 59 57 55 53 51 50 48 47 46 45 44 42 41 39 39 39 39 38 37 37 38 39 40 41 42 43 44 45 46 47 48 48 48 46 44 41 38 36 34 32 30 27 24 22 19 16 14 13 13 15 17 20 23 26 29 33 37 42 48 53 59 65 70 75 78 81 82 82 83 85 86
57 58 59 60 62 63 64 65 65 64 63 62 60 57 56 54 52 51 49 48 47 45 44 43 41 40 38 37 37 38 38 37 36 36 37 38 39 40 41 42 42 43 44 45 46 47 47 46 44 41 38 35 33 31 29 26 23 21 19 16 14 12 12 14 16 19 22 24 28 31 35 40 46 52 57 62 68 73 77 80 82 83 84 85 87
58 59 60 62 63 64 65 64 63 61 59 57 56 54 53 52 51 49 48 47 45 44 42 40 38 37 36 36 36 37 36 36 35 36 36 36 37 38 39 40 41 42 43 43 44 45 45 45 43 42 39 35 33 31 29 27 24 20 18 16 14 12 12 13 15 18 21 23 26 30 34 40 45 50 55 60 66 71 76 79 81 83 84 85 87
60 61 62 64 64 64 63 60 58 56 55 54 53 52 51 50 49 48 46 45 43 41 39 37 35 34 34 35 35 36 35 34 35 35 35 35 36 36 37 39 40 41 42 43 43 44 44 43 43 41 39 36 33 30 29 27 25 21 18 16 14 12 11 12 14 17 20 22 26 29 33 38 43 48 52 57 63 69 74 78 81 83 84 86 87
62 63 63 63 63 61 58 56 54 53 53 52 51 51 50 48 47 46 44 42 40 38 36 34 33 33 33 34 34 34 34 34 34 34 34 34 35 36 36 38 39 40 41 42 43 43 43 42 42 40 39 36 33 30 28 27 25 23 19 16 14 12 11 11 13 15 18 21 25 28 32 36 41 45 50 54 60 66 72 76 79 82 84 86 87
62 62 61 60 58 56 54 53 52 52 51 50 50 49 47 46 44 42 41 39 37 35 33 32 31 32 33 33 33 33 33 34 35 34 34 34 35 36 36 37 38 40 41 41 42 42 42 42 41 40 38 37 34 31 29 26 25 23 21 17 15 13 11 11 12 14 17 20 23 27 30 34 39 43 47 52 57 63 69 74 78 82 84 86 87
60 58 57 55 54 53 52 51 51 50 49 49 47 46 44 43 41 39 37 35 33 31 30 30 30 31 32 32 32 32 32 33 34 34 34 34 35 36 37 37 38 39 40 41 41 41 41 41 40 39 38 36 35 33 30 28 25 24 22 19 16 14 12 11 11 12 15 18 22 25 29 32 36 40 45 49 54 60 66 72 77 80 83 85 87
55 54 53 52 52 51 50 49 48 48 47 46 44 42 41 39 37 35 33 31 30 29 28 29 29 30 31 31 31 31 32 32 33 34 34 34 35 36 37 37 38 38 39 40 40 40 40 40 39 38 37 36 34 33 31 29 26 24 22 20 18 15 13 12 11 12 13 16 20 23 27 30 34 38 42 47 51 56 62 68 74 78 82 85 87
52 51 51 50 50 49 48 46 45 45 44 42 40 39 37 35 34 32 30 29 28 27 27 28 28 28 29 29 30 31 31 32 32 33 34 34 35 36 37 37 38 38 38 39 39 39 39 38 38 37 36 34 33 32 31 30 28 25 22 20 18 16 14 12 11 11 12 15 18 21 25 28 32 36 40 44 49 53 58 64 70 76 80 83 86
49 49 48 48 47 46 44 43 42 41 40 38 37 35 34 33 32 30 29 28 27 27 27 27 27 27 27 28 29 30 30 31 31 32 33 35 36 36 37 37 38 38 38 38 38 38 38 38 37 36 35 33 32 30 29 29 28 27 24 21 18 16 15 13 12 11 12 13 16 19 22 26 30 33 37 42 46 50 55 59 65 71 77 81 85
47 46 45 44 43 42 41 40 38 37 36 35 34 33 32 30 29 28 28 28 28 28 28 27 26 25 26 27 28 29 30 30 31 32 33 35 36 36 37 37 38 38 38 37 37 36 36 36 36 35 34 32 31 29 28 27 27 27 26 24 21 18 15 14 13 12 12 12 14 17 20 24 27 31 35 39 43 47 51 56 60 66 72 77 82
43 42 42 41 40 39 38 36 35 34 34 33 32 30 29 28 27 27 28 28 28 28 28 27 26 25 26 27 28 28 29 30 31 32 34 34 35 36 37 38 38 38 38 38 37 36 35 35 35 35 33 32 30 29 27 25 24 25 25 25 23 20 17 14 13 12 12 12 13 15 18 21 25 28 32 36 40 44 48 52 56 61 67 72 78
39 39 38 38 37 35 34 33 32 32 31 31 29 28 27 26 26 27 27 28 28 28 28 27 27 27 27 27 28 28 29 30 32 33 34 35 35 36 37 38 38 38 38 38 37 36 35 34 33 33 33 32 30 28 26 25 23 22 22 23 23 22 20 17 14 12 11 12 13 14 16 18 22 26 29 33 37 41 45 49 53 57 61 67 72
36 36 35 34 33 32 32 31 30 29 29 28 27 26 26 26 26 26 27 27 27 27 27 27 28 28 28 28 28 29 30 31 32 33 34 35 36 36 37 38 38 38 38 38 38 37 36 35 33 32 32 31 30 28 26 24 23 21 20 20 20 21 21 20 18 15 13 11 12 13 14 16 19 22 26 30 34 37 41 45 49 53 57 61 66
33 32 32 31 30 30 29 29 28 27 27 27 27 26 26 26 26 26 26 26 26 26 26 27 28 29 29 29 30 30 31 32 32 33 34 35 36 37 38 38 39 39 39 38 38 37 36 36 34 33 31 30 30 29 27 25 23 21 20 19 18 18 19 19 19 18 16 14 13 12 13 15 17 20 23 26 30 34 38 42 45 49 53 57 61
30 29 29 28 28 27 27 27 26 26 26 26 27 26 26 26 26 26 26 26 26 26 26 27 28 29 30 31 31 31 32 32 33 34 35 35 36 37 38 39 40 40 39 38 38 37 36 36 35 34 32 31 30 29 28 26 24 23 21 19 18 17 16 16 17 17 17 17 16 15 14 14 16 18 21 23 26 30 34 38 41 45 49 53 57
Wind_Direction
280 281 283 285 286 287 287 287 287 288 289 290 290 291 291 291 291 291 291 291 291 291 291 291 291 291 291 292 292 291 291 291 291 291 291 291 291 291 291 290 290 290 290 290 289 289 289 288 288 288 287 286 285 283 281 278 276 274 272 269 268 265 263 261 256 254 257 257 252 249 249 247 247 248 248 243 240 243 253 256 252 250 247 244 241
280 282 283 285 286 286 287 287 288 289 290 290 291 291 291 291 291 291 291 292 292 292 292 292 292 293 293 293 293 292 292 292 291 291 291 291 291 290 290 290 290 290 289 289 289 288 288 288 288 288 287 286 284 282 280 278 276 274 272 270 268 266 263 260 257 253 255 257 253 248 247 246 245 246 246 243 239 239 248 254 251 248 247 244 240
280 282 283 285 285 286 287 288 289 290 290 291 291 291 291 292 292 292 292 292 293 293 293 293 293 293 293 293 293 293 292 292 292 292 291 291 291 291 290 290 290 290 289 289 289 289 289 288 288 288 287 285 283 280 278 276 274 273 272 270 268 267 264 261 258 254 253 256 254 249 246 245 244 244 243 241 238 236 242 248 247 247 248 244 238
281 283 284 285 286 287 288 289 290 290 290 290 291 291 292 292 292 293 293 293 293 293 294 294 294 294 294 294 293 293 293 292 292 292 292 292 291 291 290 290 290 289 289 289 289 289 289 288 288 287 286 284 281 279 276 274 273 272 271 270 269 267 265 262 259 255 252 253 254 250 246 243 242 242 241 240 237 234 238 244 247 249 250 243 235
281 283 284 285 286 287 288 288 288 288 289 289 290 291 292 293 293 294 294 294 294 294 294 295 295 295 294 294 293 293 293 292 292 292 292 292 291 291 291 290 290 290 290 290 289 289 289 288 287 286 285 283 281 279 277 274 272 271 270 269 268 267 265 263 259 256 252 250 251 250 246 242 241 240 239 237 236 234 235 241 245 247 244 235 230
281 282 283 284 285 286 286 286 287 287 288 289 291 292 293 294 294 294 295 295 295 295 295 295 295 295 294 294 293 293 293 293 292 292 292 292 291 291 291 291 291 290 290 290 289 289 288 288 287 286 285 283 282 280 278 276 274 272 270 268 267 266 264 262 259 257 254 250 248 248 246 242 239 238 237 235 235 234 234 237 239 235 231 227 224
280 281 282 283 284 284 285 285 286 287 289 290 292 293 293 294 295 295 295 295 295 295 294 294 294 294 294 293 293 293 293 293 292 292 292 291 291 291 290 290 290 290 290 290 289 289 288 288 286 285 284 283 282 280 279 278 276 275 273 271 268 266 264 261 258 256 254 251 247 245 245 242 238 237 236 233 233 234 233 233 231 224 221 224 223
280 281 282 283 283 284 285 286 287 289 290 291 292 293 294 295 295 295 295 295 295 294 294 294 294 294 293 293 293 293 293 292 292 292 292 291 291 291 290 290 290 290 290 290 290 289 289 288 287 286 284 283 282 281 280 278 277 276 275 274 271 268 265 262 258 255 253 251 247 243 242 241 238 236 235 233 232 232 230 229 224 216 215 221 222
280 281 282 282 283 285 286 288 289 291 291 292 293 293 294 295 295 295 295 295 294 294 294 294 293 293 293 293 292 292 292 292 292 292 292 292 291 291 290 290 290 291 291 290 290 290 289 289 288 287 286 285 284 283 281 279 277 276 274 273 272 269 267 263 258 254 251 249 246 243 240 239 237 235 234 232 230 229 226 224 219 214 215 219 221
280 280 281 283 285 287 289 290 291 292 292 292 292 293 294 295 295 295 295 295 294 294 294 293 293 292 292 292 292 292 292 292 292 292 292 292 292 291 291 291 291 291 291 291 291 291 290 290 289 288 287 286 285 284 282 280 278 276 274 272 270 268 266 263 259 254 250 247 245 242 238 237 235 233 232 231 229 227 224 221 216 213 215 218 220
278 280 282 285 287 289 290 290 291 291 291 292 292 294 295 296 296 296 295 295 294 294 293 292 292 292 292 292 292 292 292 292 292 292 292 292 292 292 292 292 292 292 292 292 292 292 292 292 291 290 289 287 286 284 282 281 278 276 274 271 269 267 264 262 259 254 249 245 243 241 237 235 234 232 230 229 228 225 222 220 216 214 215 218 219
279 282 284 286 288 289 290 290 291 290 291 291 293 295 296 296 296 296 295 294 293 293 292 292 292 292 293 293 293 293 293 292 292 293 293 293 294 294 294 294 294 294 294 294 294 294 294 293 292 291 290 288 287 285 283 281 279 277 274 271 268 266 263 260 258 254 249 243 240 239 237 234 232 230 228 227 226 224 222 220 216 214 216 218 219
281 284 285 287 288 289 289 290 289 290 290 292 294 295 296 296 296 295 294 293 293 293 293 293 293 293 294 294 294 294 294 294 294 295 295 296 296 296 296 296 296 296 296 296 295 295 294 293 292 291 290 289 287 285 284 282 280 278 275 272 269 265 261 258 255 253 249 243 238 237 236 233 230 229 227 226 225 222 220 219 216 214 216 219 219
282 284 285 287 288 288 288 288 289 290 292 293 295 296 296 296 295 294 294 293 293 293 294 294 294 294 294 294 295 295 296 296 297 297 298 298 298 297 297 297 297 297 297 297 296 295 295 294 293 292 290 289 288 286 284 282 280 278 276 273 269 265 261 256 252 249 247 244 238 235 234 232 229 228 227 224 223 221 219 217 215 214 216 219 220
282 284 285 286 287 287 288 288 290 291 293 295 296 296 296 295 294 294 293 293 293 294 294 294 295 295 295 296 297 298 298 299 299 299 299 299 299 299 299 299 299 299 299 298 298 297 296 295 294 293 292 291 290 288 286 283 281 278 275 272 269 265 261 256 251 246 244 242 238 234 232 231 227 226 226 223 221 221 219 216 214 215 218 220 221
283 284 285 286 286 287 288 289 291 293 294 295 295 295 295 294 293 293 293 293 294 295 295 296 296 297 298 299 299 300 300 300 300 300 300 300 300 300 301 301 301 301 301 301 300 299 299 298 297 296 295 294 292 290 288 285 281 278 275 272 268 265 261 256 251 245 241 239 237 234 231 229 227 225 224 223 220 220 219 216 215 217 219 219 220
283 284 285 285 287 288 290 291 293 294 295 295 295 294 294 293 293 293 294 295 296 297 297 298 299 299 300 300 300 300 300 300 300 300 300 301 301 302 303 303 303 303 303 302 302 301 301 300 300 299 298 296 294 293 290 288 284 280 275 271 268 265 261 257 251 245 240 236 235 233 230 228 226 224 223 222 220 219 219 216 216 219 219 217 217
283 284 285 287 288 290 291 292 294 294 295 294 294 293 293 293 294 295 296 297 298 298 299 299 300 300 300 300 300 300 300 301 301 301 302 303 303 304 304 304 304 304 304 303 303 303 302 302 302 301 300 298 297 294 292 289 286 281 276 272 268 265 262 258 252 246 240 235 233 231 229 227 225 223 222 221 219 218 218 217 217 219 218 216 216
283 285 286 288 290 291 292 293 294 294 294 293 293 293 293 294 295 296 297 298 299 299 300 300 300 300 300 300 300 301 301 302 302 303 304 304 305 305 305 305 305 304 304 304 304 304 304 304 304 303 302 301 299 297 295 293 288 283 277 272 269 265 262 258 253 247 240 234 231 230 228 226 224 222 221 219 218 217 217 217 218 218 217 217 217
284 286 288 289 290 291 292 293 294 293 293 292 292 293 294 295 296 297 298 299 299 299 300 300 300 300 300 301 301 302 303 303 304 305 305 305 305 305 306 305 305 304 304 304 305 305 306 306 306 306 305 304 302 300 298 296 290 285 280 274 269 265 261 257 253 248 241 233 229 228 227 226 224 221 220 218 217 216 216 217 218 217 217 217 218
286 287 289 290 291 292 293 293 293 292 292 292 292 293 295 296 297 298 299 299 299 299 299 300 300 300 301 302 303 303 304 304 305 305 305 305 306 306 306 305 305 305 305 306 306 307 307 308 308 307 306 304 302 300 299 296 290 284 281 277 270 264 260 256 251 247 242 233 227 226 225 224 223 221 219 217 216 215 215 216 217 217 216 216 217
287 288 289 291 292 292 293 292 291 291 291 292 293 294 295 297 298 298 299 299 299 299 299 300 300 301 302 303 303 304 304 305 305 305 305 306 306 306 306 305 305 306 307 307 308 309 309 309 309 308 307 306 305 303 301 297 290 285 281 276 270 265 259 253 248 245 241 233 225 223 223 223 222 220 217 216 215 214 214 215 216 217 216 215 215
288 289 290 291 292 291 291 291 291 291 291 293 294 295 297 297 298 298 298 298 299 299 300 301 301 302 303 303 303 304 304 305 305 305 306 306 306 306 306 306 307 308 309 309 309 310 311 312 312 312 311 310 308 306 304 300 292 287 282 276 269 264 258 250 244 242 240 233 224 221 221 221 221 219 216 215 214 213 213 214 216 216 215 214 214
289 290 290 291 290 290 290 290 290 291 292 294 295 296 297 297 297 297 298 298 299 300 301 302 302 302 302 303 304 304 305 305 306 306 306 306 306 307 307 308 309 310 310 311 312 313 315 316 316 315 314 313 311 309 306 302 294 288 285 279 269 262 257 248 242 240 239 233 225 220 219 220 220 218 215 213 212 212 212 213 215 215 215 213 213
289 290 290 289 289 289 289 289 290 292 293 295 295 296 296 296 296 297 298 299 300 301 302 302 302 302 303 304 305 305 306 306 306 306 306 307 308 309 310 310 311 312 314 315 317 318 319 320 319 318 317 316 315 312 309 305 299 292 287 281 271 261 254 247 241 239 237 232 224 219 217 218 219 218 215 213 211 211 211 213 214 214 214 213 212
288 288 288 288 288 288 288 289 291 292 293 294 294 295 295 295 297 298 300 301 301 302 301 302 302 303 304 305 306 306 306 307 307 307 308 309 310 312 313 314 315 317 318 320 320 321 322 322 321 319 319 318 318 316 313 309 305 299 291 283 272 261 253 245 240 237 236 232 224 217 215 216 217 217 214 212 211 210 210 211 212 213 213 212 212
287 286 286 286 286 287 288 289 290 292 293 293 294 294 295 297 299 300 301 301 301 301 302 303 304 304 305 306 306 306 307 307 308 309 310 312 313 315 316 318 319 320 321 321 322 322 323 322 321 320 320 321 320 318 314 311 308 303 296 286 273 262 252 244 239 237 235 231 223 217 214 215 216 216 214 211 210 209 209 210 212 212 212 212 211
284 284 285 285 285 286 288 289 291 292 293 293 294 295 297 299 301 301 301 301 302 303 303 304 305 305 305 306 306 306 307 308 310 312 314 315 317 318 320 320 320 320 321 321 321 322 323 323 323 323 323 323 322 320 317 314 310 305 298 288 274 262 252 243 238 236 233 229 222 216 213 213 214 215 213 211 209 208 208 210 211 211 212 212 211
283 283 284 284 286 287 289 291 292 292 293 294 295 297 299 301 301 302 302 302 303 304 304 305 305 305 305 306 306 307 308 310 312 314 316 317 318 320 320 319 319 319 320 321 322 323 325 326 325 325 324 324 323 323 321 317 313 308 300 289 276 263 252 244 238 235 233 228 221 215 212 212 213 213 212 210 209 208 207 208 210 210 211 211 211
282 283 284 285 287 289 291 291 291 292 293 295 297 299 301 302 302 302 302 303 304 304 304 305 305 305 305 306 306 308 310 312 314 316 317 318 319 319 319 318 319 320 321 323 324 326 328 328 326 325 326 326 326 325 324 321 316 311 303 291 277 264 254 245 239 235 232 227 221 216 213 211 212 213 212 210 209 208 207 207 208 209 210 210 210
282 283 285 287 289 290 290 291 291 293 295 297 299 301 301 302 302 302 302 303 303 304 304 305 305 305 305 306 307 309 311 313 315 317 318 319 319 319 319 319 320 322 323 325 326 328 329 329 328 328 328 329 329 328 326 323 319 313 305 293 279 266 255 246 240 235 231 226 221 216 212 211 211 212 211 210 209 208 207 207 207 208 209 210 210
283 285 287 288 289 290 290 291 293 295 297 299 300 301 301 301 301 302 302 302 303 304 304 304 304 304 304 305 307 310 312 314 316 317 318 319 319 319 320 320 321 323 325 326 328 329 330 331 332 331 331 332 332 331 329 325 322 316 307 295 281 267 256 248 241 235 230 224 218 213 210 210 210 211 211 210 208 208 207 207 207 208 209 209 210
285 286 287 288 289 290 291 293 295 297 298 299 300 300 300 300 301 301 301 302 303 303 303 303 303 303 304 306 308 310 312 314 316 318 319 320 320 319 320 321 323 325 327 328 330 331 333 334 335 335 334 334 334 334 331 327 323 319 310 298 284 269 257 248 241 235 228 222 216 212 210 209 210 211 211 210 208 207 208 207 207 207 208 209 210
284 285 286 287 289 291 292 294 296 297 298 298 298 299 299 299 300 300 301 302 302 302 302 302 302 303 305 306 308 310 313 315 317 319 320 320 319 319 320 322 325 326 328 330 332 333 335 337 337 337 337 336 336 336 334 330 326 321 314 302 287 272 258 248 241 234 227 220 216 214 211 209 210 211 211 210 209 208 208 208 207 207 208 209 210
283 285 286 288 290 292 293 295 296 296 297 297 297 298 298 298 299 300 300 301 301 301 301 301 302 303 305 307 309 311 314 316 318 320 320 320 319 320 322 325 327 328 330 332 334 336 337 338 339 339 339 338 338 338 336 333 328 323 317 306 291 275 260 249 241 233 227 221 217 214 212 211 210 210 210 210 209 209 209 208 208 208 208 209 210
284 286 288 290 291 292 293 294 294 295 296 296 296 297 297 298 299 299 299 300 300 300 300 300 301 303 305 307 310 312 315 317 319 320 320 320 320 322 324 326 328 329 331 334 336 338 338 339 339 340 340 340 340 339 338 336 332 326 320 310 295 279 263 250 241 233 227 222 218 215 213 212 211 211 211 210 210 210 209 209 209 208 209 209 210
285 287 289 290 291 291 292 292 293 294 295 295 296 296 297 298 298 298 298 298 298 298 299 300 301 304 306 308 311 313 315 317 319 320 319 319 321 323 324 326 328 329 332 335 337 339 340 340 340 340 341 342 342 341 340 338 335 330 325 316 302 284 267 252 242 234 228 222 218 215 213 212 211 212 212 211 211 211 210 210 209 209 209 210 210
287 288 288 289 289 290 291 292 293 293 294 294 295 296 296 297 297 297 297 297 297 297 298 300 302 304 306 309 310 312 314 316 318 318 319 319 321 322 324 325 328 330 333 336 338 340 341 341 341 341 341 343 344 343 342 340 338 335 330 322 310 292 273 255 243 236 229 223 219 216 214 212 212 213 213 212 212 211 211 211 210 210 210 210 211
286 287 287 287 288 289 290 291 292 293 293 294 294 295 295 295 295 296 296 296 297 297 299 300 302 304 306 308 310 311 313 315 316 317 317 318 319 322 324 326 329 332 334 336 339 341 342 342 342 342 341 343 345 345 344 342 340 339 336 329 318 302 282 262 247 238 231 225 220 217 215 214 214 214 214 213 212 212 212 212 211 211 211 212 212
285 285 286 287 288 289 290 291 292 292 293 293 294 294 294 294 294 295 295 296 296 297 299 300 302 304 306 308 309 310 312 313 315 315 317 318 320 323 326 328 331 333 335 337 339 341 342 343 343 343 342 342 344 346 347 345 343 341 339 336 328 313 293 271 253 241 234 228 222 219 217 216 215 215 215 214 213 213 214 213 213 212 212 213 214
284 285 286 286 287 289 290 291 291 292 292 292 292 292 292 293 293 294 294 295 296 297 299 301 303 305 306 306 307 309 311 312 314 315 317 320 322 325 328 330 333 334 336 338 339 341 343 344 344 343 343 342 343 345 347 348 346 343 341 340 335 325 307 285 263 247 237 231 226 222 220 218 217 217 216 215 215 215 215 215 214 214 214 214 215
284 284 285 286 287 288 289 290 291 291 291 290 291 291 292 293 293 293 293 294 295 297 299 301 303 304 304 304 306 308 310 312 314 316 318 321 324 326 329 331 333 335 336 338 339 341 343 344 344 344 344 343 343 344 346 348 348 346 344 341 339 333 320 300 277 256 243 235 230 225 222 220 219 219 218 217 217 216 216 216 216 216 216 216 216
283 284 285 286 287 288 289 289 289 289 289 289 290 291 292 292 292 292 292 293 294 296 299 300 302 302 302 303 305 308 310 312 313 316 318 322 324 327 329 331 333 335 336 337 339 341 342 344 345 345 344 344 344 343 344 345 347 347 345 342 340 337 330 316 295 271 252 240 233 229 226 223 221 220 220 219 218 218 217 217 218 218 218 218 218
283 284 285 286 286 287 288 288 288 288 288 289 291 291 292 291 291 291 292 293 294 296 298 299 300 300 301 302 305 307 310 312 314 316 319 322 324 327 329 331 333 334 336 337 338 340 341 343 344 345 344 344 344 343 343 343 344 346 346 344 340 338 334 326 311 290 268 250 239 233 229 226 224 222 221 221 221 220 220 219 219 219 220 220 220
283 283 284 285 286 286 286 287 287 287 288 289 290 290 290 290 290 291 293 294 295 296 297 298 298 299 300 302 304 307 309 312 314 317 319 322 324 327 328 330 332 334 335 336 338 340 341 342 343 344 345 344 343 343 343 342 342 342 344 344 343 339 336 332 324 309 287 266 250 240 233 230 227 225 224 223 222 222 222 221 221 221 221 222 222
281 282 283 284 285 285 285 286 287 288 288 289 289 288 288 289 290 292 294 295 296 297 298 298 298 299 300 302 304 307 310 312 315 317 320 322 324 326 327 329 331 333 334 336 337 339 340 341 342 343 344 344 344 343 343 343 342 341 341 341 342 342 339 335 330 321 306 286 266 251 241 235 230 228 227 226 225 224 224 224 223 223 223 224 224
281 282 283 283 284 284 285 286 287 287 287 287 287 287 287 289 291 293 295 296 297 297 298 299 300 301 302 303 305 308 310 313 315 317 319 321 323 325 327 328 330 332 334 336 337 338 340 341 341 342 343 344 344 343 343 343 342 341 340 339 339 339 338 336 331 325 317 304 286 268 253 243 236 232 230 228 227 227 226 226 225 225 226 226 226
282 282 283 283 284 285 286 286 286 285 285 285 286 287 288 290 293 294 295 296 297 297 299 300 301 302 303 304 306 308 310 313 315 317 319 320 322 324 326 327 329 332 334 335 336 337 339 340 341 341 342 342 343 343 343 342 342 341 340 338 337 336 336 335 332 328 322 313 302 287 270 256 246 239 235 232 230 229 229 228 228 228 227 228 228
282 282 283 284 285 285 285 285 285 285 285 286 287 289 291 292 294 294 294 295 296 297 298 300 301 302 303 305 306 308 310 312 314 316 318 319 321 323 324 326 328 331 333 334 335 336 337 339 340 341 341 342 342 342 342 342 341 340 340 338 337 335 333 332 330 328 324 317 309 299 287 273 260 250 242 237 234 232 231 231 230 230 230 230 230
282 283 283 284 284 284 285 286 286 286 287 288 290 292 293 293 294 294 294 294 295 296 298 299 300 301 303 304 306 308 310 312 313 315 316 318 319 321 323 325 327 329 332 333 334 335 336 337 339 340 341 341 341 341 341 341 341 340 339 337 336 334 332 330 328 326 323 319 314 306 296 285 275 264 254 246 240 237 235 234 233 233 232 232 232
283 283 283 283 284 284 285 286 287 288 289 291 292 293 294 295 295 295 295 295 296 297 297 298 299 301 302 304 306 308 309 311 313 314 315 317 318 320 322 323 325 327 330 332 332 333 334 335 336 337 339 340 341 341 340 339 339 339 338 336 334 332 330 328 326 323 321 318 314 310 302 293 283 275 267 259 251 245 240 238 236 236 235 235 234
Height
10651 10650 10648 10647 10646 10644 10643 10641 10639 10637 10635 10633 10631 10629 10627 10624 10622 10620 10617 10615 10613 10611 10609 10607 10605 10602 10600 10598 10596 10594 10591 10588 10586 10584 10581 10579 10577 10575 10572 10570 10568 10566 10564 10562 10560 10559 10557 10555 10553 10552 10550 10549 10547 10545 10544 10544 10544 10544 10545 10546 10546 10548 10552 10555 10560 10560 10553 10553 10559 10561 10563 10567 10569 10571 10574 10577 10580 10584 10586 10586 10587 10590 10592 10595 10599
10646 10644 10643 10642 10640 10638 10636 10634 10633 10631 10629 10627 10625 10622 10620 10618 10615 10613 10611 10608 10606 10603 10601 10598 10596 10594 10592 10590 10587 10585 10582 10579 10577 10574 10572 10570 10568 10565 10563 10561 10559 10556 10554 10552 10550 10548 10547 10545 10543 10541 10540 10538 10537 10535 10534 10533 10533 10533 10533 10535 10536 10537 10541 10544 10548 10551 10547 10544 10548 10552 10553 10557 10561 10562 10566 10569 10572 10576 10578 10578 10579 10581 10583 10587 10590
10640 10639 10638 10636 10634 10632 10630 10628 10626 10624 10622 10620 10618 10616 10613 10611 10609 10606 10604 10601 10598 10596 10593 10590 10588 10585 10583 10581 10578 10576 10573 10570 10568 10565 10563 10561 10558 10556 10553 10551 10549 10546 10544 10542 10540 10538 10536 10534 10532 10531 10529 10528 10526 10525 10524 10523 10523 10523 10523 10524 10526 10526 10529 10533 10537 10540 10540 10536 10537 10542 10544 10547 10552 10554 10557 10561 10563 10567 10569 10569 10571 10573 10575 10578 10581
10634 10633 10632 10630 10628 10626 10624 10622 10620 10618 10616 10614 10611 10609 10607 10604 10602 10599 10597 10594 10591 10588 10585 10583 10580 10577 10575 10572 10570 10567 10565 10562 10559 10557 10554 10551 10549 10546 10544 10541 10539 10537 10534 10532 10529 10527 10525 10523 10521 10520 10518 10517 10515 10514 10514 10514 10513 10513 10513 10513 10515 10516 10518 10521 10525 10529 10532 10530 10528 10530 10534 10538 10542 10545 10548 10552 10555 10558 10560 10560 10563 10566 10566 10570 10574
10628 10627 10626 10624 10622 10620 10618 10616 10614 10612 10610 10608 10605 10603 10601 10598 10595 10592 10589 10587 10584 10581 10578 10575 10572 10569 10567 10564 10562 10559 10557 10554 10551 10548 10545 10542 10539 10536 10534 10531 10529 10527 10524 10521 10519 10516 10514 10512 10510 10509 10508 10506 10505 10504 10503 10503 10503 10503 10504 10503 10504 10506 10507 10510 10514 10517 10521 10522 10520 10520 10524 10529 10532 10535 10539 10543 10546 10549 10551 10553 10556 10559 10560 10564 10568
10623 10621 10620 10618 10617 10615 10612 10610 10608 10606 10604 10602 10600 10597 10594 10591 10588 10585 10582 10580 10577 10574 10571 10568 10565 10562 10559 10557 10554 10551 10548 10546 10543 10540 10537 10534 10531 10528 10524 10522 10519 10516 10513 10510 10508 10506 10504 10502 10500 10499 10498 10497 10495 10494 10493 10492 10492 10492 10493 10494 10494 10496 10497 10499 10502 10505 10509 10512 10512 10512 10514 10518 10523 10526 10529 10533 10537 10540 10543 10546 10549 10552 10555 10558 10562
10617 10615 10614 10612 10610 10608 10606 10604 10603 10600 10598 10596 10593 10590 10587 10584 10581 10578 10575 10572 10570 10567 10564 10561 10558 10555 10552 10549 10546 10543 10540 10537 10534 10531 10528 10525 10522 10518 10515 10512 10509 10506 10504 10500 10498 10496 10494 10492 10491 10489 10488 10487 10485 10484 10483 10482 10482 10481 10481 10483 10484 10485 10487 10488 10491 10494 10497 10501 10503 10503 10505 10508 10513 10516 10518 10524 10528 10531 10535 10539 10542 10545 10548 10552 10556
10611 10609 10608 10606 10604 10602 10600 10599 10597 10594 10592 10589 10586 10583 10580 10577 10574 10571 10568 10565 10562 10559 10556 10553 10550 10547 10545 10542 10539 10535 10532 10528 10525 10522 10519 10516 10512 10509 10506 10503 10500 10496 10494 10491 10488 10485 10483 10481 10480 10478 10477 10476 10475 10473 10473 10472 10472 10471 10470 10471 10472 10474 10476 10477 10480 10483 10486 10489 10492 10494 10496 10498 10502 10505 10509 10514 10519 10522 10526 10531 10534 10537 10541 10545 10548
10604 10603 10601 10599 10597 10596 10594 10592 10590 10587 10585 10582 10579 10576 10573 10570 10567 10564 10561 10557 10554 10551 10548 10545 10543 10540 10537 10534 10531 10527 10524 10520 10517 10513 10510 10506 10503 10500 10496 10493 10490 10486 10483 10480 10477 10474 10472 10470 10468 10467 10465 10464 10463 10461 10461 10460 10461 10461 10460 10459 10460 10462 10463 10465 10468 10471 10475 10478 10480 10483 10486 10488 10491 10495 10499 10504 10509 10513 10517 10522 10526 10529 10532 10535 10539
10598 10596 10594 10593 10592 10590 10588 10585 10583 10580 10577 10574 10571 10569 10566 10562 10559 10556 10553 10549 10546 10543 10540 10538 10535 10532 10529 10525 10522 10519 10515 10512 10509 10505 10501 10497 10493 10490 10486 10483 10480 10476 10473 10470 10466 10463 10460 10458 10456 10455 10453 10452 10450 10448 10447 10446 10447 10448 10448 10448 10448 10449 10451 10452 10455 10459 10463 10466 10469 10472 10476 10478 10480 10484 10490 10494 10498 10503 10508 10513 10516 10519 10522 10526 10530
10591 10589 10588 10587 10585 10583 10581 10578 10575 10573 10570 10567 10564 10561 10558 10554 10551 10548 10544 10541 10538 10535 10532 10530 10527 10523 10520 10517 10513 10510 10507 10503 10500 10497 10493 10489 10484 10480 10476 10472 10469 10466 10462 10459 10456 10452 10449 10446 10443 10441 10440 10438 10437 10435 10433 10431 10432 10433 10434 10434 10435 10436 10438 10439 10442 10445 10450 10454 10457 10460 10464 10468 10469 10473 10479 10483 10487 10493 10498 10503 10507 10510 10513 10517 10522
10584 10583 10582 10580 10578 10576 10574 10571 10568 10565 10562 10560 10556 10553 10550 10546 10543 10540 10536 10533 10530 10527 10524 10521 10518 10515 10511 10508 10505 10501 10498 10495 10491 10487 10483 10479 10475 10471 10467 10463 10459 10456 10452 10448 10445 10441 10437 10433 10430 10427 10424 10423 10422 10420 10418 10416 10415 10416 10417 10419 10419 10421 10424 10426 10428 10431 10436 10441 10445 10447 10452 10456 10459 10463 10468 10471 10477 10484 10489 10493 10498 10501 10505 10509 10513
10578 10576 10575 10573 10571 10569 10566 10564 10561 10558 10555 10552 10549 10546 10542 10538 10535 10532 10528 10525 10522 10519 10516 10513 10510 10506 10503 10499 10496 10492 10489 10485 10481 10478 10473 10469 10464 10460 10456 10452 10449 10445 10442 10438 10434 10430 10425 10421 10417 10413 10410 10408 10406 10405 10404 10402 10400 10399 10399 10401 10402 10404 10407 10411 10414 10417 10421 10426 10432 10435 10438 10443 10448 10451 10455 10460 10467 10474 10479 10483 10488 10492 10497 10501 10505
10571 10570 10568 10566 10564 10562 10559 10556 10553 10551 10548 10545 10541 10538 10534 10531 10527 10524 10521 10518 10515 10512 10508 10505 10502 10498 10494 10491 10487 10483 10480 10476 10471 10467 10463 10459 10454 10450 10446 10442 10438 10435 10431 10427 10423 10418 10413 10409 10404 10400 10397 10394 10392 10390 10389 10388 10386 10384 10383 10383 10384 10386 10389 10394 10399 10403 10407 10411 10418 10422 10424 10430 10436 10438 10442 10450 10457 10462 10468 10474 10478 10483 10488 10492 10496
10565 10563 10561 10559 10557 10554 10552 10549 10546 10543 10540 10537 10533 10530 10526 10523 10519 10516 10513 10510 10507 10504 10501 10497 10493 10490 10486 10482 10478 10474 10470 10466 10462 10457 10453 10448 10444 10440 10436 10431 10427 10422 10418 10414 10409 10405 10400 10395 10391 10387 10383 10380 10377 10376 10375 10373 10372 10370 10368 10367 10367 10368 10371 10376 10382 10388 10392 10396 10402 10408 10411 10416 10423 10426 10430 10439 10447 10452 10457 10464 10469 10474 10479 10483 10487
10558 10556 10554 10552 10549 10547 10544 10541 10538 10535 10532 10528 10525 10521 10518 10515 10512 10509 10506 10503 10500 10496 10493 10489 10485 10481 10477 10473 10469 10465 10461 10457 10453 10448 10443 10439 10434 10429 10425 10420 10414 10409 10405 10400 10395 10391 10386 10382 10377 10373 10369 10366 10363 10361 10360 10359 10358 10357 10354 10352 10351 10352 10354 10359 10366 10372 10378 10382 10387 10393 10397 10403 10410 10414 10418 10426 10436 10441 10446 10455 10461 10464 10469 10475 10480
10551 10549 10547 10544 10542 10539 10536 10533 10530 10527 10524 10520 10517 10513 10510 10507 10504 10501 10498 10495 10492 10488 10485 10481 10477 10473 10469 10465 10461 10457 10453 10448 10444 10439 10434 10429 10424 10419 10414 10409 10403 10397 10392 10387 10382 10377 10373 10369 10365 10361 10357 10353 10350 10348 10346 10345 10344 10343 10340 10338 10337 10337 10340 10344 10351 10356 10362 10367 10372 10377 10383 10389 10396 10402 10406 10414 10424 10430 10437 10446 10450 10453 10460 10467 10473
10543 10541 10539 10536 10534 10531 10529 10525 10522 10519 10515 10512 10509 10506 10503 10500 10497 10494 10491 10487 10484 10480 10477 10473 10469 10465 10461 10457 10453 10449 10444 10440 10435 10430 10425 10420 10415 10409 10404 10399 10393 10386 10380 10374 10370 10365 10361 10357 10352 10348 10344 10340 10337 10335 10334 10333 10331 10329 10327 10325 10323 10325 10327 10331 10336 10341 10347 10353 10358 10363 10369 10375 10383 10390 10395 10402 10412 10420 10428 10435 10437 10443 10453 10459 10463
10536 10534 10531 10529 10526 10524 10521 10517 10514 10511 10507 10504 10501 10498 10495 10492 10490 10487 10483 10480 10477 10473 10469 10465 10461 10457 10453 10448 10444 10440 10436 10431 10427 10422 10416 10411 10406 10401 10395 10389 10383 10376 10370 10364 10359 10355 10350 10346 10341 10336 10332 10328 10325 10323 10322 10322 10319 10316 10314 10313 10312 10312 10315 10319 10323 10328 10334 10340 10345 10350 10356 10362 10370 10377 10384 10391 10400 10409 10418 10423 10427 10436 10445 10449 10453
10528 10526 10524 10522 10519 10516 10513 10510 10507 10503 10500 10497 10494 10491 10488 10486 10482 10479 10476 10473 10469 10466 10462 10458 10453 10449 10444 10440 10436 10432 10428 10423 10418 10413 10407 10402 10397 10392 10386 10380 10374 10367 10361 10356 10351 10346 10341 10336 10331 10326 10321 10317 10313 10311 10310 10310 10308 10304 10303 10303 10302 10301 10304 10308 10311 10315 10321 10327 10332 10337 10343 10350 10357 10365 10373 10381 10389 10399 10407 10412 10417 10427 10434 10438 10444
10520 10519 10517 10514 10511 10508 10505 10502 10499 10496 10493 10490 10487 10485 10482 10479 10475 10472 10469 10465 10462 10458 10454 10450 10445 10441 10436 10432 10428 10423 10419 10415 10410 10404 10399 10393 10388 10383 10378 10372 10365 10360 10354 10348 10343 10339 10334 10329 10324 10318 10313 10309 10304 10302 10301 10299 10297 10294 10293 10293 10292 10291 10293 10297 10301 10304 10308 10315 10321 10325 10330 10337 10345 10354 10362 10370 10379 10387 10395 10402 10408 10416 10423 10429 10436
10513 10511 10509 10506 10503 10500 10497 10494 10491 10489 10486 10484 10481 10478 10475 10472 10469 10465 10461 10458 10454 10450 10446 10441 10437 10433 10428 10424 10420 10416 10412 10407 10402 10396 10390 10385 10381 10376 10370 10364 10358 10353 10347 10341 10336 10331 10327 10322 10317 10311 10306 10301 10296 10293 10292 10290 10286 10284 10284 10284 10283 10282 10284 10287 10291 10293 10297 10303 10310 10314 10319 10326 10333 10342 10351 10360 10368 10376 10384 10392 10398 10406 10414 10421 10428
10506 10504 10501 10498 10495 10492 10489 10487 10484 10482 10479 10477 10475 10472 10469 10465 10462 10458 10454 10451 10447 10443 10438 10434 10429 10425 10421 10417 10413 10409 10405 10399 10394 10388 10383 10378 10373 10368 10363 10357 10352 10346 10341 10335 10329 10324 10320 10315 10309 10304 10299 10293 10288 10285 10283 10281 10278 10275 10275 10276 10275 10274 10276 10279 10281 10284 10287 10293 10299 10304 10308 10314 10322 10331 10340 10349 10358 10366 10374 10382 10389 10396 10405 10413 10420
10498 10496 10493 10491 10488 10485 10482 10480 10477 10475 10472 10470 10468 10465 10462 10459 10455 10452 10448 10444 10440 10435 10431 10426 10422 10418 10414 10410 10406 10402 10397 10392 10386 10381 10376 10371 10366 10361 10356 10350 10345 10340 10335 10329 10323 10317 10313 10308 10302 10296 10292 10287 10281 10278 10276 10274 10271 10268 10267 10268 10268 10267 10268 10271 10273 10275 10280 10285 10291 10296 10300 10305 10312 10320 10330 10340 10348 10357 10365 10373 10380 10388 10396 10405 10411
10491 10488 10486 10483 10480 10478 10475 10473 10470 10468 10466 10463 10460 10458 10455 10452 10448 10445 10441 10437 10432 10428 10423 10419 10414 10410 10406 10402 10398 10393 10389 10384 10379 10374 10369 10364 10359 10354 10348 10343 10338 10333 10327 10321 10315 10309 10305 10300 10294 10289 10285 10281 10275 10270 10268 10266 10264 10262 10261 10261 10261 10261 10262 10264 10266 10269 10273 10277 10283 10288 10293 10298 10304 10312 10321 10331 10340 10348 10356 10364 10371 10380 10388 10395 10402
10484 10481 10478 10476 10473 10471 10469 10466 10464 10461 10459 10456 10453 10451 10448 10445 10441 10438 10434 10429 10425 10421 10416 10412 10407 10403 10398 10394 10390 10385 10381 10377 10373 10368 10363 10358 10353 10348 10342 10336 10330 10325 10320 10314 10308 10303 10298 10292 10287 10283 10279 10275 10271 10266 10262 10259 10258 10256 10256 10255 10255 10255 10256 10258 10260 10263 10266 10270 10275 10280 10285 10289 10295 10303 10313 10323 10332 10340 10348 10355 10362 10371 10379 10387 10394
10477 10474 10471 10469 10467 10465 10462 10460 10458 10455 10452 10449 10446 10443 10440 10437 10434 10430 10426 10422 10418 10414 10409 10405 10400 10396 10391 10387 10383 10378 10374 10370 10366 10361 10356 10351 10346 10341 10336 10330 10324 10319 10313 10308 10303 10298 10293 10287 10282 10277 10273 10270 10267 10263 10258 10255 10253 10251 10251 10250 10250 10250 10251 10253 10254 10257 10260 10264 10269 10274 10279 10282 10288 10295 10305 10315 10325 10333 10340 10346 10354 10363 10371 10378 10387
10469 10467 10465 10463 10460 10458 10456 10454 10452 10449 10445 10442 10439 10436 10433 10430 10426 10422 10418 10414 10410 10406 10401 10397 10393 10389 10385 10381 10377 10373 10369 10365 10361 10355 10350 10345 10340 10335 10330 10325 10320 10315 10310 10304 10299 10294 10289 10284 10277 10272 10267 10264 10261 10258 10255 10251 10249 10247 10246 10246 10245 10245 10246 10248 10249 10252 10255 10258 10263 10268 10273 10277 10282 10289 10297 10307 10316 10325 10333 10340 10347 10356 10363 10371 10379
10462 10460 10458 10456 10454 10452 10450 10447 10445 10442 10439 10435 10432 10429 10426 10422 10418 10414 10410 10406 10402 10398 10394 10389 10385 10382 10378 10375 10371 10368 10364 10360 10356 10352 10346 10341 10337 10332 10327 10322 10318 10313 10307 10302 10296 10291 10285 10279 10273 10268 10263 10258 10255 10252 10250 10247 10245 10243 10242 10241 10241 10241 10242 10243 10245 10247 10250 10254 10258 10263 10267 10271 10276 10282 10290 10299 10309 10317 10326 10333 10340 10348 10356 10364 10372
10456 10454 10452 10450 10448 10445 10443 10440 10438 10435 10432 10429 10426 10422 10418 10414 10411 10407 10403 10399 10395 10391 10387 10383 10379 10375 10371 10368 10365 10362 10359 10355 10351 10347 10343 10338 10334 10330 10326 10320 10315 10310 10304 10298 10292 10286 10281 10276 10270 10265 10260 10256 10251 10248 10245 10243 10241 10240 10239 10238 10237 10238 10238 10239 10241 10243 10246 10250 10254 10258 10263 10267 10272 10277 10284 10293 10301 10309 10318 10325 10333 10341 10349 10357 10365
10450 10447 10445 10443 10441 10438 10436 10433 10431 10428 10425 10422 10419 10415 10411 10407 10403 10399 10395 10392 10388 10384 10381 10377 10373 10369 10366 10363 10360 10357 10354 10350 10347 10343 10339 10335 10331 10327 10322 10317 10311 10306 10301 10295 10289 10283 10278 10273 10267 10262 10257 10253 10249 10245 10242 10240 10238 10237 10235 10235 10234 10234 10235 10236 10238 10240 10243 10246 10250 10255 10261 10265 10268 10272 10278 10286 10294 10303 10312 10319 10326 10334 10341 10349 10357
10443 10441 10439 10436 10434 10431 10429 10426 10423 10421 10418 10415 10412 10408 10404 10400 10396 10392 10388 10385 10382 10378 10375 10371 10368 10365 10362 10358 10355 10353 10349 10346 10343 10340 10336 10332 10328 10324 10320 10314 10308 10303 10298 10292 10286 10281 10276 10270 10265 10259 10254 10250 10247 10243 10240 10237 10235 10234 10233 10232 10232 10232 10232 10233 10235 10237 10240 10243 10247 10251 10255 10259 10262 10266 10272 10280 10289 10297 10305 10312 10320 10327 10335 10342 10349
10436 10434 10432 10429 10427 10424 10422 10419 10416 10413 10411 10408 10405 10401 10397 10393 10389 10385 10382 10379 10376 10373 10369 10366 10363 10360 10357 10354 10351 10348 10346 10343 10340 10336 10333 10329 10325 10322 10317 10312 10306 10300 10295 10289 10283 10278 10273 10268 10262 10257 10252 10248 10245 10242 10239 10235 10233 10232 10231 10230 10229 10229 10230 10231 10232 10234 10237 10241 10243 10246 10249 10254 10258 10263 10268 10276 10283 10290 10297 10305 10313 10320 10327 10334 10342
10429 10427 10425 10423 10420 10417 10415 10412 10409 10406 10403 10401 10397 10394 10390 10387 10383 10379 10376 10373 10370 10367 10364 10361 10358 10355 10352 10349 10346 10344 10341 10339 10336 10332 10329 10326 10323 10319 10315 10310 10305 10299 10293 10287 10281 10275 10270 10265 10260 10256 10251 10246 10243 10240 10237 10234 10231 10230 10229 10228 10227 10227 10228 10228 10230 10232 10234 10237 10239 10242 10246 10250 10254 10259 10265 10271 10277 10284 10291 10299 10307 10314 10321 10328 10335
10422 10420 10418 10416 10413 10410 10407 10405 10402 10400 10397 10393 10390 10386 10383 10380 10377 10374 10371 10368 10365 10362 10359 10356 10353 10350 10347 10344 10341 10339 10337 10335 10332 10329 10325 10322 10319 10315 10311 10307 10302 10297 10291 10285 10279 10273 10268 10263 10259 10254 10250 10246 10242 10238 10235 10233 10230 10228 10227 10226 10225 10225 10226 10226 10228 10229 10231 10233 10236 10239 10242 10246 10250 10255 10260 10266 10272 10279 10286 10294 10301 10308 10315 10323 10330
10415 10413 10411 10409 10406 10403 10401 10398 10396 10393 10390 10386 10382 10379 10376 10373 10370 10368 10365 10362 10360 10357 10354 10351 10348 10346 10343 10340 10337 10335 10333 10331 10328 10325 10322 10319 10315 10312 10308 10304 10299 10295 10289 10284 10277 10272 10266 10261 10257 10253 10249 10245 10241 10237 10234 10232 10229 10227 10225 10225 10224 10224 10224 10225 10225 10227 10229 10231 10234 10236 10240 10244 10248 10252 10257 10262 10267 10274 10281 10288 10296 10303 10310 10316 10322
10408 10406 10404 10401 10399 10396 10394 10392 10389 10387 10383 10379 10375 10372 10370 10367 10364 10362 10360 10357 10354 10352 10349 10347 10344 10341 10339 10336 10333 10331 10329 10327 10325 10322 10320 10316 10313 10309 10305 10301 10297 10293 10288 10283 10277 10271 10265 10260 10256 10251 10247 10244 10240 10236 10233 10231 10229 10226 10224 10223 10223 10222 10222 10223 10224 10225 10226 10228 10231 10234 10237 10241 10244 10248 10252 10257 10263 10269 10275 10283 10290 10297 10303 10309 10314
10400 10398 10396 10394 10391 10389 10387 10385 10382 10380 10376 10372 10369 10366 10364 10361 10359 10356 10354 10352 10349 10347 10344 10342 10339 10337 10335 10332 10330 10328 10326 10324 10322 10319 10317 10314 10311 10307 10303 10299 10295 10291 10286 10281 10276 10271 10265 10260 10255 10250 10246 10243 10239 10236 10233 10230 10228 10226 10224 10222 10221 10221 10221 10221 10222 10223 10224 10226 10229 10231 10234 10237 10240 10243 10248 10253 10259 10264 10270 10277 10284 10290 10296 10302 10307
10393 10391 10389 10386 10384 10382 10380 10378 10375 10372 10369 10366 10363 10360 10358 10356 10353 10351 10348 10346 10344 10341 10339 10337 10335 10333 10331 10329 10327 10324 10323 10321 10319 10317 10315 10312 10309 10305 10301 10297 10293 10288 10284 10279 10274 10269 10264 10259 10254 10250 10245 10242 10239 10235 10232 10229 10227 10225 10223 10221 10220 10220 10220 10220 10220 10221 10222 10224 10226 10229 10231 10234 10237 10240 10245 10250 10255 10259 10265 10271 10277 10284 10289 10295 10300
10385 10383 10381 10379 10376 10374 10372 10370 10368 10365 10362 10360 10357 10355 10352 10350 10348 10346 10343 10341 10339 10337 10335 10333 10331 10329 10327 10325 10323 10321 10319 10318 10316 10314 10311 10309 10306 10302 10299 10295 10290 10286 10281 10277 10273 10268 10263 10259 10254 10249 10245 10241 10238 10235 10232 10229 10227 10224 10222 10221 10219 10219 10218 10219 10219 10219 10220 10222 10224 10226 10229 10231 10234 10237 10241 10246 10250 10255 10260 10265 10271 10277 10283 10288 10293
10378 10376 10374 10371 10369 10367 10365 10363 10361 10358 10356 10354 10351 10349 10347 10345 10343 10341 10338 10336 10334 10332 10331 10329 10327 10325 10324 10322 10320 10318 10316 10314 10312 10310 10308 10305 10302 10299 10296 10292 10288 10283 10279 10275 10271 10266 10262 10258 10253 10249 10245 10241 10237 10234 10232 10229 10227 10224 10222 10220 10219 10218 10217 10217 10217 10218 10219 10220 10221 10223 10226 10228 10231 10234 10238 10242 10246 10250 10254 10259 10265 10270 10276 10281 10285
10370 10368 10366 10364 10362 10360 10358 10356 10354 10352 10350 10348 10346 10344 10342 10340 10338 10336 10334 10332 10330 10328 10327 10325 10324 10322 10320 10318 10317 10315 10313 10311 10309 10306 10304 10302 10299 10296 10293 10289 10286 10281 10277 10273 10269 10265 10261 10257 10252 10248 10244 10240 10237 10233 10231 10228 10226 10224 10222 10220 10218 10217 10216 10216 10216 10216 10217 10218 10219 10221 10223 10225 10228 10231 10234 10237 10241 10245 10249 10254 10259 10264 10269 10274 10278
10363 10361 10359 10357 10355 10353 10352 10350 10348 10346 10344 10342 10340 10338 10336 10334 10333 10331 10330 10328 10326 10325 10324 10322 10321 10319 10317 10315 10313 10312 10310 10308 10306 10303 10301 10298 10296 10293 10290 10287 10284 10280 10276 10272 10268 10264 10260 10256 10252 10248 10244 10240 10237 10233 10230 10228 10226 10224 10222 10220 10218 10216 10215 10215 10215 10215 10215 10216 10217 10218 10220 10222 10225 10228 10230 10233 10237 10240 10244 10248 10253 10257 10262 10267 10271
10356 10354 10353 10351 10349 10347 10346 10344 10342 10340 10338 10336 10335 10333 10331 10330 10328 10327 10326 10324 10323 10322 10321 10319 10318 10316 10314 10312 10310 10309 10307 10305 10303 10300 10298 10295 10293 10290 10288 10285 10281 10278 10275 10271 10267 10263 10259 10255 10252 10248 10244 10240 10237 10233 10230 10227 10225 10223 10222 10220 10218 10216 10214 10214 10213 10213 10214 10214 10215 10216 10218 10219 10221 10224 10227 10229 10232 10236 10239 10243 10247 10251 10255 10259 10264
10349 10348 10346 10345 10343 10342 10340 10338 10337 10335 10333 10331 10330 10328 10327 10325 10324 10323 10321 10320 10319 10318 10317 10316 10315 10313 10311 10309 10308 10306 10304 10302 10300 10297 10295 10292 10290 10287 10285 10282 10279 10276 10273 10269 10266 10262 10258 10254 10251 10247 10244 10240 10237 10233 10230 10227 10224 10222 10221 10219 10217 10216 10214 10213 10212 10212 10212 10212 10213 10214 10215 10216 10218 10220 10222 10225 10228 10231 10234 10237 10241 10245 10248 10252 10256
10343 10342 10340 10339 10338 10336 10335 10333 10331 10330 10328 10327 10325 10324 10323 10321 10320 10318 10317 10316 10315 10314 10313 10312 10311 10310 10308 10306 10304 10302 10301 10299 10297 10294 10292 10290 10287 10284 10282 10279 10276 10274 10270 10267 10264 10260 10256 10253 10249 10246 10243 10240 10236 10233 10230 10227 10224 10222 10220 10218 10217 10215 10213 10212 10211 10210 10210 10211 10211 10212 10212 10213 10215 10216 10218 10221 10223 10226 10229 10232 10235 10239 10242 10246 10249
10338 10336 10335 10333 10332 10331 10329 10328 10326 10325 10324 10322 10321 10320 10319 10317 10316 10315 10313 10312 10311 10310 10309 10308 10307 10306 10305 10303 10301 10299 10297 10295 10293 10291 10289 10287 10284 10281 10279 10276 10273 10271 10268 10265 10261 10258 10255 10252 10248 10245 10242 10239 10236 10233 10230 10227 10225 10222 10219 10217 10216 10214 10213 10212 10210 10209 10209 10209 10209 10209 10210 10211 10212 10213 10214 10216 10218 10221 10223 10226 10229 10232 10235 10239 10242
10332 10331 10329 10328 10327 10325 10324 10323 10322 10321 10319 10318 10317 10316 10315 10313 10312 10311 10310 10309 10308 10306 10305 10304 10303 10302 10301 10299 10298 10296 10294 10292 10290 10288 10286 10284 10281 10279 10276 10273 10270 10268 10265 10262 10259 10256 10253 10250 10247 10244 10241 10238 10235 10232 10230 10227 10224 10222 10219 10217 10215 10213 10212 10211 10210 10208 10208 10207 10207 10207 10207 10208 10209 10209 10211 10212 10214 10215 10217 10220 10222 10225 10228 10231 10234
10327 10325 10324 10323 10322 10320 10319 10318 10317 10316 10315 10314 10313 10312 10311 10310 10309 10308 10307 10305 10304 10303 10302 10300 10299 10298 10297 10295 10294 10292 10290 10288 10286 10284 10282 10280 10278 10276 10273 10270 10268 10265 10262 10259 10256 10253 10251 10248 10245 10242 10239 10237 10234 10231 10229 10226 10224 10221 10219 10217 10215 10213 10211 10209 10208 10207 10206 10206 10205 10205 10205 10205 10205 10206 10207 10208 10209 10210 10212 10214 10216 10218 10221 10224 10226
10322 10320 10319 10318 10317 10316 10315 10314 10313 10312 10311 10310 10309 10308 10307 10306 10305 10304 10303 10302 10301 10300 10299 10297 10296 10294 10293 10291 10290 10288 10286 10285 10283 10281 10279 10277 10275 10272 10270 10267 10265 10262 10259 10256 10254 10251 10248 10245 10243 10240 10238 10235 10232 10230 10227 10225 10223 10220 10218 10216 10214 10212 10210 10209 10207 10206 10205 10204 10203 10203 10203 10202 10202 10203 10203 10204 10205 10206 10207 10208 10210 10212 10214 10216 10218
10317 10316 10315 10314 10313 10312 10311 10310 10309 10308 10307 10306 10305 10303 10303 10302 10301 10300 10299 10298 10297 10296 10295 10294 10292 10290 10289 10287 10286 10284 10282 10281 10279 10277 10275 10273 10271 10269 10266 10264 10261 10259 10256 10253 10251 10248 10245 10243 10240 10238 10235 10233 10231 10228 10226 10223 10221 10219 10217 10215 10213 10211 10209 10208 10206 10205 10203 10202 10201 10201 10200 10200 10200 10199 10199 10200 10200 10201 10202 10203 10204 10205 10207 10209 10210